Year,Month,Day,Hour,Minute,Value (Times are PST for temperature in C)
2021,06,25,00,00,16.10
2021,06,25,00,01,16.10
2021,06,25,00,02,16.10
2021,06,25,00,03,16.10
2021,06,25,00,04,16.10
2021,06,25,00,05,16.10
2021,06,25,00,06,16.00
2021,06,25,00,07,16.00
2021,06,25,00,08,15.90
2021,06,25,00,09,15.90
2021,06,25,00,10,15.90
2021,06,25,00,11,15.80
2021,06,25,00,12,15.80
2021,06,25,00,13,15.80
2021,06,25,00,14,15.70
2021,06,25,00,15,15.70
2021,06,25,00,16,15.70
2021,06,25,00,17,15.70
2021,06,25,00,18,15.70
2021,06,25,00,19,15.60
2021,06,25,00,20,15.60
2021,06,25,00,21,15.60
2021,06,25,00,22,15.60
2021,06,25,00,23,15.60
2021,06,25,00,24,15.60
2021,06,25,00,25,15.60
2021,06,25,00,26,15.60
2021,06,25,00,27,15.60
2021,06,25,00,28,15.60
2021,06,25,00,29,15.60
2021,06,25,00,30,15.60
2021,06,25,00,31,15.60
2021,06,25,00,32,15.60
2021,06,25,00,33,15.60
2021,06,25,00,34,15.60
2021,06,25,00,35,15.60
2021,06,25,00,36,15.60
2021,06,25,00,37,15.60
2021,06,25,00,38,15.60
2021,06,25,00,39,15.60
2021,06,25,00,40,15.60
2021,06,25,00,41,15.60
2021,06,25,00,42,15.70
2021,06,25,00,43,15.70
2021,06,25,00,44,15.70
2021,06,25,00,45,15.70
2021,06,25,00,46,15.70
2021,06,25,00,47,15.70
2021,06,25,00,48,15.70
2021,06,25,00,49,15.70
2021,06,25,00,50,15.70
2021,06,25,00,51,15.70
2021,06,25,00,52,15.70
2021,06,25,00,53,15.70
2021,06,25,00,54,15.70
2021,06,25,00,55,15.70
2021,06,25,00,56,15.70
2021,06,25,00,57,15.70
2021,06,25,00,58,15.70
2021,06,25,00,59,15.70
2021,06,25,01,00,15.70
2021,06,25,01,01,15.70
2021,06,25,01,02,15.80
2021,06,25,01,03,15.80
2021,06,25,01,04,15.80
2021,06,25,01,05,15.80
2021,06,25,01,06,15.80
2021,06,25,01,07,15.80
2021,06,25,01,08,15.80
2021,06,25,01,09,15.80
2021,06,25,01,10,15.80
2021,06,25,01,11,15.80
2021,06,25,01,12,15.80
2021,06,25,01,13,15.80
2021,06,25,01,14,15.80
2021,06,25,01,15,15.80
2021,06,25,01,16,15.80
2021,06,25,01,17,15.80
2021,06,25,01,18,15.80
2021,06,25,01,19,15.80
2021,06,25,01,20,15.80
2021,06,25,01,21,15.80
2021,06,25,01,22,15.80
2021,06,25,01,23,15.80
2021,06,25,01,24,15.80
2021,06,25,01,25,15.80
2021,06,25,01,26,15.80
2021,06,25,01,27,15.90
2021,06,25,01,28,15.90
2021,06,25,01,29,15.90
2021,06,25,01,30,15.90
2021,06,25,01,31,15.90
2021,06,25,01,32,15.90
2021,06,25,01,33,15.90
2021,06,25,01,34,15.90
2021,06,25,01,35,15.90
2021,06,25,01,36,16.00
2021,06,25,01,37,16.00
2021,06,25,01,38,16.00
2021,06,25,01,39,16.10
2021,06,25,01,40,16.10
2021,06,25,01,41,16.10
2021,06,25,01,42,16.20
2021,06,25,01,43,16.20
2021,06,25,01,44,16.20
2021,06,25,01,45,16.20
2021,06,25,01,46,16.30
2021,06,25,01,47,16.30
2021,06,25,01,48,16.30
2021,06,25,01,49,16.30
2021,06,25,01,50,16.30
2021,06,25,01,51,16.30
2021,06,25,01,52,16.30
2021,06,25,01,53,16.30
2021,06,25,01,54,16.40
2021,06,25,01,55,16.40
2021,06,25,01,56,16.40
2021,06,25,01,57,16.40
2021,06,25,01,58,16.40
2021,06,25,01,59,16.30
2021,06,25,02,00,16.30
2021,06,25,02,01,16.30
2021,06,25,02,02,16.30
2021,06,25,02,03,16.30
2021,06,25,02,04,16.30
2021,06,25,02,05,16.30
2021,06,25,02,06,16.30
2021,06,25,02,07,16.30
2021,06,25,02,08,16.30
2021,06,25,02,09,16.30
2021,06,25,02,10,16.30
2021,06,25,02,11,16.30
2021,06,25,02,12,16.30
2021,06,25,02,13,16.30
2021,06,25,02,14,16.30
2021,06,25,02,15,16.40
2021,06,25,02,16,16.40
2021,06,25,02,17,16.40
2021,06,25,02,18,16.40
2021,06,25,02,19,16.40
2021,06,25,02,20,16.40
2021,06,25,02,21,16.40
2021,06,25,02,22,16.40
2021,06,25,02,23,16.40
2021,06,25,02,24,16.40
2021,06,25,02,25,16.40
2021,06,25,02,26,16.40
2021,06,25,02,27,16.40
2021,06,25,02,28,16.40
2021,06,25,02,29,16.40
2021,06,25,02,30,16.40
2021,06,25,02,31,16.40
2021,06,25,02,32,16.40
2021,06,25,02,33,16.40
2021,06,25,02,34,16.40
2021,06,25,02,35,16.40
2021,06,25,02,36,16.40
2021,06,25,02,37,16.50
2021,06,25,02,38,16.50
2021,06,25,02,39,16.50
2021,06,25,02,40,16.50
2021,06,25,02,41,16.60
2021,06,25,02,42,16.60
2021,06,25,02,43,16.60
2021,06,25,02,44,16.60
2021,06,25,02,45,16.60
2021,06,25,02,46,16.60
2021,06,25,02,47,16.60
2021,06,25,02,48,16.60
2021,06,25,02,49,16.70
2021,06,25,02,50,16.70
2021,06,25,02,51,16.60
2021,06,25,02,52,16.60
2021,06,25,02,53,16.60
2021,06,25,02,54,16.60
2021,06,25,02,55,16.50
2021,06,25,02,56,16.50
2021,06,25,02,57,16.40
2021,06,25,02,58,16.40
2021,06,25,02,59,16.40
2021,06,25,03,00,16.40
2021,06,25,03,01,16.40
2021,06,25,03,02,16.40
2021,06,25,03,03,16.40
2021,06,25,03,04,16.40
2021,06,25,03,05,16.40
2021,06,25,03,06,16.40
2021,06,25,03,07,16.40
2021,06,25,03,08,16.40
2021,06,25,03,09,16.40
2021,06,25,03,10,16.40
2021,06,25,03,11,16.40
2021,06,25,03,12,16.30
2021,06,25,03,13,16.30
2021,06,25,03,14,16.30
2021,06,25,03,15,16.30
2021,06,25,03,16,16.30
2021,06,25,03,17,16.30
2021,06,25,03,18,16.30
2021,06,25,03,19,16.20
2021,06,25,03,20,16.30
2021,06,25,03,21,16.30
2021,06,25,03,22,16.30
2021,06,25,03,23,16.30
2021,06,25,03,24,16.30
2021,06,25,03,25,16.30
2021,06,25,03,26,16.30
2021,06,25,03,27,16.30
2021,06,25,03,28,16.30
2021,06,25,03,29,16.30
2021,06,25,03,30,16.30
2021,06,25,03,31,16.30
2021,06,25,03,32,16.30
2021,06,25,03,33,16.30
2021,06,25,03,34,16.30
2021,06,25,03,35,16.30
2021,06,25,03,36,16.30
2021,06,25,03,37,16.30
2021,06,25,03,38,16.30
2021,06,25,03,39,16.30
2021,06,25,03,40,16.30
2021,06,25,03,41,16.30
2021,06,25,03,42,16.30
2021,06,25,03,43,16.40
2021,06,25,03,44,16.40
2021,06,25,03,45,16.40
2021,06,25,03,46,16.40
2021,06,25,03,47,16.40
2021,06,25,03,48,16.40
2021,06,25,03,49,16.40
2021,06,25,03,50,16.40
2021,06,25,03,51,16.40
2021,06,25,03,52,16.40
2021,06,25,03,53,16.30
2021,06,25,03,54,16.30
2021,06,25,03,55,16.30
2021,06,25,03,56,16.30
2021,06,25,03,57,16.30
2021,06,25,03,58,16.30
2021,06,25,03,59,16.30
2021,06,25,04,00,16.30
2021,06,25,04,01,16.30
2021,06,25,04,02,16.30
2021,06,25,04,03,16.30
2021,06,25,04,04,16.30
2021,06,25,04,05,16.20
2021,06,25,04,06,16.20
2021,06,25,04,07,16.20
2021,06,25,04,08,16.20
2021,06,25,04,09,16.20
2021,06,25,04,10,16.20
2021,06,25,04,11,16.20
2021,06,25,04,12,16.20
2021,06,25,04,13,16.20
2021,06,25,04,14,16.20
2021,06,25,04,15,16.20
2021,06,25,04,16,16.20
2021,06,25,04,17,16.20
2021,06,25,04,18,16.20
2021,06,25,04,19,16.20
2021,06,25,04,20,16.20
2021,06,25,04,21,16.20
2021,06,25,04,22,16.10
2021,06,25,04,23,16.10
2021,06,25,04,24,16.10
2021,06,25,04,25,16.00
2021,06,25,04,26,16.00
2021,06,25,04,27,16.00
2021,06,25,04,28,15.90
2021,06,25,04,29,15.90
2021,06,25,04,30,15.90
2021,06,25,04,31,15.90
2021,06,25,04,32,15.90
2021,06,25,04,33,15.90
2021,06,25,04,34,15.90
2021,06,25,04,35,15.90
2021,06,25,04,36,15.90
2021,06,25,04,37,16.00
2021,06,25,04,38,16.00
2021,06,25,04,39,16.00
2021,06,25,04,40,16.00
2021,06,25,04,41,16.00
2021,06,25,04,42,16.00
2021,06,25,04,43,16.00
2021,06,25,04,44,16.00
2021,06,25,04,45,16.00
2021,06,25,04,46,16.00
2021,06,25,04,47,16.00
2021,06,25,04,48,16.00
2021,06,25,04,49,16.00
2021,06,25,04,50,16.00
2021,06,25,04,51,15.90
2021,06,25,04,52,15.90
2021,06,25,04,53,15.90
2021,06,25,04,54,15.80
2021,06,25,04,55,15.70
2021,06,25,04,56,15.60
2021,06,25,04,57,15.50
2021,06,25,04,58,15.40
2021,06,25,04,59,15.30
2021,06,25,05,00,15.30
2021,06,25,05,01,15.20
2021,06,25,05,02,15.20
2021,06,25,05,03,15.20
2021,06,25,05,04,15.30
2021,06,25,05,05,15.30
2021,06,25,05,06,15.30
2021,06,25,05,07,15.20
2021,06,25,05,08,15.20
2021,06,25,05,09,15.20
2021,06,25,05,10,15.20
2021,06,25,05,11,15.20
2021,06,25,05,12,15.20
2021,06,25,05,13,15.20
2021,06,25,05,14,15.20
2021,06,25,05,15,15.20
2021,06,25,05,16,15.20
2021,06,25,05,17,15.20
2021,06,25,05,18,15.20
2021,06,25,05,19,15.20
2021,06,25,05,20,15.10
2021,06,25,05,21,15.10
2021,06,25,05,22,15.10
2021,06,25,05,23,15.00
2021,06,25,05,24,15.00
2021,06,25,05,25,15.00
2021,06,25,05,26,14.90
2021,06,25,05,27,14.90
2021,06,25,05,28,14.90
2021,06,25,05,29,14.90
2021,06,25,05,30,14.90
2021,06,25,05,31,14.80
2021,06,25,05,32,14.80
2021,06,25,05,33,14.80
2021,06,25,05,34,14.80
2021,06,25,05,35,14.70
2021,06,25,05,36,14.70
2021,06,25,05,37,14.70
2021,06,25,05,38,14.60
2021,06,25,05,39,14.60
2021,06,25,05,40,14.60
2021,06,25,05,41,14.60
2021,06,25,05,42,14.50
2021,06,25,05,43,14.50
2021,06,25,05,44,14.40
2021,06,25,05,45,14.30
2021,06,25,05,46,14.30
2021,06,25,05,47,14.20
2021,06,25,05,48,14.10
2021,06,25,05,49,14.00
2021,06,25,05,50,14.00
2021,06,25,05,51,13.90
2021,06,25,05,52,13.90
2021,06,25,05,53,13.80
2021,06,25,05,54,13.80
2021,06,25,05,55,13.80
2021,06,25,05,56,13.80
2021,06,25,05,57,13.80
2021,06,25,05,58,13.70
2021,06,25,05,59,13.70
2021,06,25,06,00,13.70
2021,06,25,06,01,13.70
2021,06,25,06,02,13.70
2021,06,25,06,03,13.70
2021,06,25,06,04,13.70
2021,06,25,06,05,13.70
2021,06,25,06,06,13.70
2021,06,25,06,07,13.70
2021,06,25,06,08,13.70
2021,06,25,06,09,13.70
2021,06,25,06,10,13.70
2021,06,25,06,11,13.70
2021,06,25,06,12,13.70
2021,06,25,06,13,13.70
2021,06,25,06,14,13.70
2021,06,25,06,15,13.70
2021,06,25,06,16,13.70
2021,06,25,06,17,13.80
2021,06,25,06,18,13.80
2021,06,25,06,19,13.80
2021,06,25,06,20,13.80
2021,06,25,06,21,13.80
2021,06,25,06,22,13.80
2021,06,25,06,23,13.80
2021,06,25,06,24,13.80
2021,06,25,06,25,13.80
2021,06,25,06,26,13.80
2021,06,25,06,27,13.80
2021,06,25,06,28,13.90
2021,06,25,06,29,13.90
2021,06,25,06,30,13.90
2021,06,25,06,31,13.90
2021,06,25,06,32,13.90
2021,06,25,06,33,13.90
2021,06,25,06,34,13.90
2021,06,25,06,35,13.90
2021,06,25,06,36,13.90
2021,06,25,06,37,13.90
2021,06,25,06,38,14.00
2021,06,25,06,39,14.00
2021,06,25,06,40,14.00
2021,06,25,06,41,14.00
2021,06,25,06,42,14.10
2021,06,25,06,43,14.10
2021,06,25,06,44,14.10
2021,06,25,06,45,14.10
2021,06,25,06,46,14.20
2021,06,25,06,47,14.20
2021,06,25,06,48,14.20
2021,06,25,06,49,14.20
2021,06,25,06,50,14.20
2021,06,25,06,51,14.30
2021,06,25,06,52,14.30
2021,06,25,06,53,14.30
2021,06,25,06,54,14.30
2021,06,25,06,55,14.40
2021,06,25,06,56,14.40
2021,06,25,06,57,14.40
2021,06,25,06,58,14.50
2021,06,25,06,59,14.50
2021,06,25,07,00,14.60
2021,06,25,07,01,14.60
2021,06,25,07,02,14.60
2021,06,25,07,03,14.60
2021,06,25,07,04,14.70
2021,06,25,07,05,14.70
2021,06,25,07,06,14.80
2021,06,25,07,07,14.80
2021,06,25,07,08,14.90
2021,06,25,07,09,15.00
2021,06,25,07,10,15.00
2021,06,25,07,11,15.10
2021,06,25,07,12,15.20
2021,06,25,07,13,15.20
2021,06,25,07,14,15.30
2021,06,25,07,15,15.40
2021,06,25,07,16,15.50
2021,06,25,07,17,15.50
2021,06,25,07,18,15.60
2021,06,25,07,19,15.60
2021,06,25,07,20,15.70
2021,06,25,07,21,15.70
2021,06,25,07,22,15.80
2021,06,25,07,23,15.80
2021,06,25,07,24,15.90
2021,06,25,07,25,16.00
2021,06,25,07,26,16.10
2021,06,25,07,27,16.20
2021,06,25,07,28,16.30
2021,06,25,07,29,16.40
2021,06,25,07,30,16.50
2021,06,25,07,31,16.60
2021,06,25,07,32,16.70
2021,06,25,07,33,16.70
2021,06,25,07,34,16.80
2021,06,25,07,35,16.90
2021,06,25,07,36,16.90
2021,06,25,07,37,17.00
2021,06,25,07,38,17.10
2021,06,25,07,39,17.10
2021,06,25,07,40,17.20
2021,06,25,07,41,17.20
2021,06,25,07,42,17.30
2021,06,25,07,43,17.30
2021,06,25,07,44,17.40
2021,06,25,07,45,17.40
2021,06,25,07,46,17.50
2021,06,25,07,47,17.60
2021,06,25,07,48,17.60
2021,06,25,07,49,17.60
2021,06,25,07,50,17.70
2021,06,25,07,51,17.80
2021,06,25,07,52,17.80
2021,06,25,07,53,17.90
2021,06,25,07,54,17.90
2021,06,25,07,55,18.00
2021,06,25,07,56,18.10
2021,06,25,07,57,18.10
2021,06,25,07,58,18.20
2021,06,25,07,59,18.20
2021,06,25,08,00,18.20
2021,06,25,08,01,18.30
2021,06,25,08,02,18.30
2021,06,25,08,03,18.30
2021,06,25,08,04,18.40
2021,06,25,08,05,18.50
2021,06,25,08,06,18.50
2021,06,25,08,07,18.50
2021,06,25,08,08,18.60
2021,06,25,08,09,18.60
2021,06,25,08,10,18.70
2021,06,25,08,11,18.70
2021,06,25,08,12,18.70
2021,06,25,08,13,18.80
2021,06,25,08,14,18.80
2021,06,25,08,15,18.80
2021,06,25,08,16,18.80
2021,06,25,08,17,18.80
2021,06,25,08,18,18.90
2021,06,25,08,19,18.90
2021,06,25,08,20,18.90
2021,06,25,08,21,19.00
2021,06,25,08,22,19.00
2021,06,25,08,23,19.10
2021,06,25,08,24,19.10
2021,06,25,08,25,19.10
2021,06,25,08,26,19.20
2021,06,25,08,27,19.20
2021,06,25,08,28,19.20
2021,06,25,08,29,19.20
2021,06,25,08,30,19.20
2021,06,25,08,31,19.30
2021,06,25,08,32,19.30
2021,06,25,08,33,19.30
2021,06,25,08,34,19.40
2021,06,25,08,35,19.40
2021,06,25,08,36,19.40
2021,06,25,08,37,19.50
2021,06,25,08,38,19.50
2021,06,25,08,39,19.60
2021,06,25,08,40,19.60
2021,06,25,08,41,19.70
2021,06,25,08,42,19.70
2021,06,25,08,43,19.80
2021,06,25,08,44,19.80
2021,06,25,08,45,19.90
2021,06,25,08,46,19.90
2021,06,25,08,47,20.00
2021,06,25,08,48,20.00
2021,06,25,08,49,20.10
2021,06,25,08,50,20.10
2021,06,25,08,51,20.20
2021,06,25,08,52,20.20
2021,06,25,08,53,20.20
2021,06,25,08,54,20.20
2021,06,25,08,55,20.30
2021,06,25,08,56,20.30
2021,06,25,08,57,20.40
2021,06,25,08,58,20.50
2021,06,25,08,59,20.50
2021,06,25,09,00,20.60
2021,06,25,09,01,20.70
2021,06,25,09,02,20.80
2021,06,25,09,03,20.80
2021,06,25,09,04,20.90
2021,06,25,09,05,21.00
2021,06,25,09,06,21.10
2021,06,25,09,07,21.10
2021,06,25,09,08,21.10
2021,06,25,09,09,21.20
2021,06,25,09,10,21.20
2021,06,25,09,11,21.20
2021,06,25,09,12,21.20
2021,06,25,09,13,21.20
2021,06,25,09,14,21.20
2021,06,25,09,15,21.20
2021,06,25,09,16,21.20
2021,06,25,09,17,21.20
2021,06,25,09,18,21.20
2021,06,25,09,19,21.30
2021,06,25,09,20,21.30
2021,06,25,09,21,21.30
2021,06,25,09,22,21.30
2021,06,25,09,23,21.30
2021,06,25,09,24,21.30
2021,06,25,09,25,21.30
2021,06,25,09,26,21.30
2021,06,25,09,27,21.40
2021,06,25,09,28,21.40
2021,06,25,09,29,21.40
2021,06,25,09,30,21.40
2021,06,25,09,31,21.40
2021,06,25,09,32,21.30
2021,06,25,09,33,21.20
2021,06,25,09,34,21.10
2021,06,25,09,35,21.00
2021,06,25,09,36,20.90
2021,06,25,09,37,20.80
2021,06,25,09,38,20.80
2021,06,25,09,39,20.70
2021,06,25,09,40,20.60
2021,06,25,09,41,20.60
2021,06,25,09,42,20.40
2021,06,25,09,43,20.30
2021,06,25,09,44,20.10
2021,06,25,09,45,20.00
2021,06,25,09,46,19.90
2021,06,25,09,47,19.80
2021,06,25,09,48,19.80
2021,06,25,09,49,19.70
2021,06,25,09,50,19.70
2021,06,25,09,51,19.70
2021,06,25,09,52,19.70
2021,06,25,09,53,19.70
2021,06,25,09,54,19.70
2021,06,25,09,55,19.70
2021,06,25,09,56,19.70
2021,06,25,09,57,19.70
2021,06,25,09,58,19.70
2021,06,25,09,59,19.70
2021,06,25,10,00,19.70
2021,06,25,10,01,19.70
2021,06,25,10,02,19.70
2021,06,25,10,03,19.70
2021,06,25,10,04,19.70
2021,06,25,10,05,19.80
2021,06,25,10,06,19.80
2021,06,25,10,07,19.90
2021,06,25,10,08,20.00
2021,06,25,10,09,20.10
2021,06,25,10,10,20.20
2021,06,25,10,11,20.30
2021,06,25,10,12,20.40
2021,06,25,10,13,20.50
2021,06,25,10,14,20.60
2021,06,25,10,15,20.70
2021,06,25,10,16,20.80
2021,06,25,10,17,20.80
2021,06,25,10,18,20.90
2021,06,25,10,19,20.90
2021,06,25,10,20,21.00
2021,06,25,10,21,21.10
2021,06,25,10,22,21.10
2021,06,25,10,23,21.20
2021,06,25,10,24,21.20
2021,06,25,10,25,21.30
2021,06,25,10,26,21.30
2021,06,25,10,27,21.40
2021,06,25,10,28,21.40
2021,06,25,10,29,21.50
2021,06,25,10,30,21.50
2021,06,25,10,31,21.60
2021,06,25,10,32,21.60
2021,06,25,10,33,21.60
2021,06,25,10,34,21.60
2021,06,25,10,35,21.70
2021,06,25,10,36,21.80
2021,06,25,10,37,21.80
2021,06,25,10,38,21.80
2021,06,25,10,39,21.70
2021,06,25,10,40,21.50
2021,06,25,10,41,21.40
2021,06,25,10,42,21.30
2021,06,25,10,43,21.30
2021,06,25,10,44,21.30
2021,06,25,10,45,21.30
2021,06,25,10,46,21.30
2021,06,25,10,47,21.30
2021,06,25,10,48,21.30
2021,06,25,10,49,21.40
2021,06,25,10,50,21.40
2021,06,25,10,51,21.50
2021,06,25,10,52,21.50
2021,06,25,10,53,21.50
2021,06,25,10,54,21.50
2021,06,25,10,55,21.40
2021,06,25,10,56,21.40
2021,06,25,10,57,21.40
2021,06,25,10,58,21.40
2021,06,25,10,59,21.40
2021,06,25,11,00,21.40
2021,06,25,11,01,21.40
2021,06,25,11,02,21.40
2021,06,25,11,03,21.50
2021,06,25,11,04,21.50
2021,06,25,11,05,21.60
2021,06,25,11,06,21.60
2021,06,25,11,07,21.60
2021,06,25,11,08,21.60
2021,06,25,11,09,21.70
2021,06,25,11,10,21.70
2021,06,25,11,11,21.70
2021,06,25,11,12,21.70
2021,06,25,11,13,21.80
2021,06,25,11,14,21.80
2021,06,25,11,15,21.80
2021,06,25,11,16,21.80
2021,06,25,11,17,21.80
2021,06,25,11,18,21.80
2021,06,25,11,19,21.80
2021,06,25,11,20,21.80
2021,06,25,11,21,21.80
2021,06,25,11,22,21.80
2021,06,25,11,23,21.90
2021,06,25,11,24,21.90
2021,06,25,11,25,21.90
2021,06,25,11,26,21.90
2021,06,25,11,27,21.90
2021,06,25,11,28,22.00
2021,06,25,11,29,22.00
2021,06,25,11,30,22.10
2021,06,25,11,31,22.10
2021,06,25,11,32,22.20
2021,06,25,11,33,22.20
2021,06,25,11,34,22.20
2021,06,25,11,35,22.30
2021,06,25,11,36,22.30
2021,06,25,11,37,22.30
2021,06,25,11,38,22.30
2021,06,25,11,39,22.30
2021,06,25,11,40,22.30
2021,06,25,11,41,22.30
2021,06,25,11,42,22.30
2021,06,25,11,43,22.30
2021,06,25,11,44,22.30
2021,06,25,11,45,22.30
2021,06,25,11,46,22.40
2021,06,25,11,47,22.40
2021,06,25,11,48,22.50
2021,06,25,11,49,22.60
2021,06,25,11,50,22.60
2021,06,25,11,51,22.60
2021,06,25,11,52,22.60
2021,06,25,11,53,22.60
2021,06,25,11,54,22.60
2021,06,25,11,55,22.60
2021,06,25,11,56,22.60
2021,06,25,11,57,22.60
2021,06,25,11,58,22.60
2021,06,25,11,59,22.60
2021,06,25,12,00,22.60
2021,06,25,12,01,22.70
2021,06,25,12,02,22.70
2021,06,25,12,03,22.70
2021,06,25,12,04,22.80
2021,06,25,12,05,22.70
2021,06,25,12,06,22.70
2021,06,25,12,07,22.70
2021,06,25,12,08,22.70
2021,06,25,12,09,22.60
2021,06,25,12,10,22.60
2021,06,25,12,11,22.60
2021,06,25,12,12,22.50
2021,06,25,12,13,22.50
2021,06,25,12,14,22.50
2021,06,25,12,15,22.60
2021,06,25,12,16,22.60
2021,06,25,12,17,22.60
2021,06,25,12,18,22.60
2021,06,25,12,19,22.60
2021,06,25,12,20,22.60
2021,06,25,12,21,22.60
2021,06,25,12,22,22.60
2021,06,25,12,23,22.60
2021,06,25,12,24,22.60
2021,06,25,12,25,22.60
2021,06,25,12,26,22.60
2021,06,25,12,27,22.70
2021,06,25,12,28,22.70
2021,06,25,12,29,22.70
2021,06,25,12,30,22.70
2021,06,25,12,31,22.70
2021,06,25,12,32,22.70
2021,06,25,12,33,22.80
2021,06,25,12,34,22.80
2021,06,25,12,35,22.80
2021,06,25,12,36,22.80
2021,06,25,12,37,22.80
2021,06,25,12,38,22.80
2021,06,25,12,39,22.80
2021,06,25,12,40,22.80
2021,06,25,12,41,22.90
2021,06,25,12,42,22.90
2021,06,25,12,43,22.90
2021,06,25,12,44,22.90
2021,06,25,12,45,23.00
2021,06,25,12,46,23.00
2021,06,25,12,47,23.00
2021,06,25,12,48,23.00
2021,06,25,12,49,22.90
2021,06,25,12,50,22.90
2021,06,25,12,51,22.80
2021,06,25,12,52,22.80
2021,06,25,12,53,22.90
2021,06,25,12,54,22.90
2021,06,25,12,55,22.90
2021,06,25,12,56,23.00
2021,06,25,12,57,23.00
2021,06,25,12,58,23.10
2021,06,25,12,59,23.10
2021,06,25,13,00,23.10
2021,06,25,13,01,23.10
2021,06,25,13,02,23.10
2021,06,25,13,03,23.10
2021,06,25,13,04,23.10
2021,06,25,13,05,23.10
2021,06,25,13,06,23.10
2021,06,25,13,07,23.20
2021,06,25,13,08,23.30
2021,06,25,13,09,23.30
2021,06,25,13,10,23.40
2021,06,25,13,11,23.40
2021,06,25,13,12,23.50
2021,06,25,13,13,23.50
2021,06,25,13,14,23.40
2021,06,25,13,15,23.40
2021,06,25,13,16,23.40
2021,06,25,13,17,23.40
2021,06,25,13,18,23.40
2021,06,25,13,19,23.40
2021,06,25,13,20,23.40
2021,06,25,13,21,23.50
2021,06,25,13,22,23.50
2021,06,25,13,23,23.60
2021,06,25,13,24,23.70
2021,06,25,13,25,23.80
2021,06,25,13,26,23.90
2021,06,25,13,27,24.00
2021,06,25,13,28,24.10
2021,06,25,13,29,24.10
2021,06,25,13,30,24.20
2021,06,25,13,31,24.30
2021,06,25,13,32,24.30
2021,06,25,13,33,24.30
2021,06,25,13,34,24.30
2021,06,25,13,35,24.30
2021,06,25,13,36,24.30
2021,06,25,13,37,24.40
2021,06,25,13,38,24.40
2021,06,25,13,39,24.40
2021,06,25,13,40,24.40
2021,06,25,13,41,24.50
2021,06,25,13,42,24.60
2021,06,25,13,43,24.60
2021,06,25,13,44,24.70
2021,06,25,13,45,24.80
2021,06,25,13,46,24.90
2021,06,25,13,47,24.90
2021,06,25,13,48,25.00
2021,06,25,13,49,25.00
2021,06,25,13,50,25.10
2021,06,25,13,51,25.10
2021,06,25,13,52,25.10
2021,06,25,13,53,25.00
2021,06,25,13,54,24.90
2021,06,25,13,55,24.90
2021,06,25,13,56,24.80
2021,06,25,13,57,24.80
2021,06,25,13,58,24.80
2021,06,25,13,59,24.80
2021,06,25,14,00,24.90
2021,06,25,14,01,24.90
2021,06,25,14,02,24.90
2021,06,25,14,03,25.00
2021,06,25,14,04,25.10
2021,06,25,14,05,25.10
2021,06,25,14,06,25.20
2021,06,25,14,07,25.30
2021,06,25,14,08,25.40
2021,06,25,14,09,25.50
2021,06,25,14,10,25.50
2021,06,25,14,11,25.40
2021,06,25,14,12,25.30
2021,06,25,14,13,25.20
2021,06,25,14,14,25.00
2021,06,25,14,15,25.00
2021,06,25,14,16,24.90
2021,06,25,14,17,24.90
2021,06,25,14,18,24.80
2021,06,25,14,19,24.90
2021,06,25,14,20,24.90
2021,06,25,14,21,25.00
2021,06,25,14,22,25.00
2021,06,25,14,23,25.10
2021,06,25,14,24,25.10
2021,06,25,14,25,25.20
2021,06,25,14,26,25.20
2021,06,25,14,27,25.20
2021,06,25,14,28,25.20
2021,06,25,14,29,25.10
2021,06,25,14,30,25.10
2021,06,25,14,31,25.10
2021,06,25,14,32,25.10
2021,06,25,14,33,25.10
2021,06,25,14,34,25.10
2021,06,25,14,35,25.10
2021,06,25,14,36,25.10
2021,06,25,14,37,25.00
2021,06,25,14,38,25.00
2021,06,25,14,39,24.90
2021,06,25,14,40,24.90
2021,06,25,14,41,24.90
2021,06,25,14,42,24.90
2021,06,25,14,43,24.90
2021,06,25,14,44,24.90
2021,06,25,14,45,25.00
2021,06,25,14,46,25.00
2021,06,25,14,47,25.10
2021,06,25,14,48,25.10
2021,06,25,14,49,25.10
2021,06,25,14,50,25.20
2021,06,25,14,51,25.30
2021,06,25,14,52,25.30
2021,06,25,14,53,25.30
2021,06,25,14,54,25.30
2021,06,25,14,55,25.40
2021,06,25,14,56,25.40
2021,06,25,14,57,25.40
2021,06,25,14,58,25.40
2021,06,25,14,59,25.40
2021,06,25,15,00,25.50
2021,06,25,15,01,25.50
2021,06,25,15,02,25.60
2021,06,25,15,03,25.60
2021,06,25,15,04,25.60
2021,06,25,15,05,25.70
2021,06,25,15,06,25.70
2021,06,25,15,07,25.70
2021,06,25,15,08,25.70
2021,06,25,15,09,25.80
2021,06,25,15,10,25.80
2021,06,25,15,11,25.80
2021,06,25,15,12,25.90
2021,06,25,15,13,25.90
2021,06,25,15,14,25.90
2021,06,25,15,15,25.90
2021,06,25,15,16,25.90
2021,06,25,15,17,26.00
2021,06,25,15,18,26.00
2021,06,25,15,19,26.10
2021,06,25,15,20,26.10
2021,06,25,15,21,26.20
2021,06,25,15,22,26.20
2021,06,25,15,23,26.30
2021,06,25,15,24,26.30
2021,06,25,15,25,26.40
2021,06,25,15,26,26.40
2021,06,25,15,27,26.50
2021,06,25,15,28,26.60
2021,06,25,15,29,26.70
2021,06,25,15,30,26.70
2021,06,25,15,31,26.80
2021,06,25,15,32,26.80
2021,06,25,15,33,26.90
2021,06,25,15,34,26.90
2021,06,25,15,35,27.00
2021,06,25,15,36,27.00
2021,06,25,15,37,27.00
2021,06,25,15,38,27.10
2021,06,25,15,39,27.10
2021,06,25,15,40,27.10
2021,06,25,15,41,27.20
2021,06,25,15,42,27.20
2021,06,25,15,43,27.20
2021,06,25,15,44,27.30
2021,06,25,15,45,27.30
2021,06,25,15,46,27.30
2021,06,25,15,47,27.40
2021,06,25,15,48,27.40
2021,06,25,15,49,27.50
2021,06,25,15,50,27.40
2021,06,25,15,51,27.40
2021,06,25,15,52,27.30
2021,06,25,15,53,27.30
2021,06,25,15,54,27.30
2021,06,25,15,55,27.30
2021,06,25,15,56,27.30
2021,06,25,15,57,27.30
2021,06,25,15,58,27.30
2021,06,25,15,59,27.30
2021,06,25,16,00,27.30
2021,06,25,16,01,27.40
2021,06,25,16,02,27.40
2021,06,25,16,03,27.50
2021,06,25,16,04,27.50
2021,06,25,16,05,27.60
2021,06,25,16,06,27.60
2021,06,25,16,07,27.60
2021,06,25,16,08,27.70
2021,06,25,16,09,27.80
2021,06,25,16,10,27.80
2021,06,25,16,11,27.90
2021,06,25,16,12,27.90
2021,06,25,16,13,27.90
2021,06,25,16,14,28.00
2021,06,25,16,15,28.00
2021,06,25,16,16,28.00
2021,06,25,16,17,27.90
2021,06,25,16,18,27.90
2021,06,25,16,19,27.90
2021,06,25,16,20,27.90
2021,06,25,16,21,27.90
2021,06,25,16,22,27.90
2021,06,25,16,23,27.90
2021,06,25,16,24,27.90
2021,06,25,16,25,27.90
2021,06,25,16,26,27.90
2021,06,25,16,27,27.90
2021,06,25,16,28,27.90
2021,06,25,16,29,28.00
2021,06,25,16,30,28.00
2021,06,25,16,31,28.00
2021,06,25,16,32,28.00
2021,06,25,16,33,28.00
2021,06,25,16,34,28.10
2021,06,25,16,35,28.10
2021,06,25,16,36,28.10
2021,06,25,16,37,28.00
2021,06,25,16,38,28.00
2021,06,25,16,39,27.90
2021,06,25,16,40,27.90
2021,06,25,16,41,27.80
2021,06,25,16,42,27.70
2021,06,25,16,43,27.70
2021,06,25,16,44,27.70
2021,06,25,16,45,27.60
2021,06,25,16,46,27.60
2021,06,25,16,47,27.70
2021,06,25,16,48,27.70
2021,06,25,16,49,27.70
2021,06,25,16,50,27.80
2021,06,25,16,51,27.80
2021,06,25,16,52,27.90
2021,06,25,16,53,27.90
2021,06,25,16,54,27.90
2021,06,25,16,55,28.00
2021,06,25,16,56,28.00
2021,06,25,16,57,28.00
2021,06,25,16,58,28.10
2021,06,25,16,59,28.10
2021,06,25,17,00,28.20
2021,06,25,17,01,28.20
2021,06,25,17,02,28.20
2021,06,25,17,03,28.30
2021,06,25,17,04,28.20
2021,06,25,17,05,28.20
2021,06,25,17,06,28.20
2021,06,25,17,07,28.10
2021,06,25,17,08,28.10
2021,06,25,17,09,28.10
2021,06,25,17,10,28.10
2021,06,25,17,11,28.20
2021,06,25,17,12,28.20
2021,06,25,17,13,28.20
2021,06,25,17,14,28.20
2021,06,25,17,15,28.20
2021,06,25,17,16,28.30
2021,06,25,17,17,28.30
2021,06,25,17,18,28.40
2021,06,25,17,19,28.40